Regional Weather Roundup
Issued by NWS Wakefield, VA

Home | Current Version | Previous Version | Graphics & Text | Print | Product List | Glossary On
Versions: 1 2 3 4 5 6 7 8 9 10 11 12 13 14 15 16 17 18 19 20 21 22 23 24 25 26 27 28 29 30 31 32 33 34 35 36 37 38 39 40 41 42 43 44 45 46 47 48 49 50
000
ASUS41 KAKQ 272216
RWRAKQ

REGIONAL WEATHER ROUNDUP
NATIONAL WEATHER SERVICE WAKEFIELD VA
600 PM EDT THU APR 27 2017

Note: "fair" indicates few or no clouds below 12,000 feet with no
significant weather and/or obstructions to visibility. * = Denotes
station may not report precipitation (e.g., rain,snow,etc.),
thunder or fog.

VAZ042-051-052>054-056-272300-
NORTHERN VIRGINIA

CITY           SKY/WX    TMP DP  RH WIND       PRES   REMARKS
WASH NATIONAL  PTSUNNY   78  64  61 S13       29.76S
DULLES         PTSUNNY   80  57  45 S14       29.75R
FORT BELVOIR   SUNNY     82  59  45 S6        29.76S
QUANTICO       PTSUNNY   80  62  54 SW13G21   29.77R
FREDERICKSBRG* MOSUNNY   82  60  47 S15G22    29.77R
STAFFORD*      MOSUNNY   80  59  48 S9        29.80R
WARRENTON      MOSUNNY   81  53  38 S8G22     29.76S
CULPEPER*      MOSUNNY   80  60  50 S10       29.77R
MANASSAS*        N/A     80  59  48 S13       29.76S
LEESBURG*      MOSUNNY   81  61  50 S9G21     29.76R
WINCHESTER     CLOUDY    75  55  50 S12G18    29.73S
FRONT ROYAL*   CLOUDY    77  57  50 S12G18    29.73S
LURAY*         CLOUDY    79  55  44 S12G17    29.76R
$$

VAZ048-049-060>072-079>083-272300-
CENTRAL AND SOUTH CENTRAL VIRGINIA

CITY           SKY/WX    TMP DP  RH WIND       PRES   REMARKS
RICHMOND       PTSUNNY   80  59  48 SW16      29.80S
CHESTERFIELD*  FAIR     N/A N/A N/A S13G20    29.83R
PETERSBURG*    MOSUNNY   78  57  47 SW13G20   29.84R
HANOVER        SUNNY     81  57  43 S13       29.82R
TAPPAHANNOCK*  MOSUNNY   83  54  36 S9G21     29.81R
QUINTON*       FAIR      82  62  50 S7        29.80S
CHARLOTTSVILLE CLOUDY    80  56  43 SW14G23   29.77S
GORDONSVILLE*  PTCLDY    79  59  50 S8G17     29.77S
ORANGE*        MOSUNNY   79  55  44 SW13G22   29.77S
LOUISA*        PTSUNNY   82  61  47 S7        29.78S
BUMPASS*       FAIR      79  59  50 S7G18     29.79R
FARMVILLE*     MOSUNNY   80  58  46 S13G21    29.80R
CREWE*         FAIR      78  59  51 S6        29.83R
FORT PICKETT*  FAIR      77  52  41 S14G23    29.84R
CHASE CITY*    MOCLDY    78  54  43 S5        29.84R
CLARKSVILLE*   CLOUDY    77  57  50 S6        29.84S
SOUTH HILL*    CLOUDY    77  62  59 S9        29.90S
LAWRENCEVILLE* FAIR      79  59  50 S6        29.84S
EMPORIA*       MOSUNNY   77  57  50 S6        29.86R
$$

VAZ088>098-272300-
SOUTHEAST VIRGINIA

CITY           SKY/WX    TMP DP  RH WIND       PRES   REMARKS
NORFOLK        MOSUNNY   84  60  44 S17       29.83S
VIRGINIA BEACH PTSUNNY   81  60  48 S14G22    29.83S
NORFOLK NAVAL  CLOUDY    83  57  41 SW12      29.85R
WEST POINT*    MOSUNNY   81  58  44 S8        29.82S
SALUDA*        FAIR      82  59  46 S8        29.82R
NEWPORT NEWS   CLOUDY    82  60  47 SW12      29.83R
LANGLEY AFB    MOSUNNY   83  60  46 SW14      29.83R
FORT EUSTIS    MOSUNNY   82  61  47 SW8       29.81R
WILLIAMSBURG*  MOSUNNY   84  61  45 S5G16     29.84R
HR EXEC AP*    FAIR      82  61  47 SW13G22   29.82R
FRANKLIN*      MOSUNNY   81  58  45 SW13G20   29.85R
US460-WAKEFLD  MOSUNNY   81  59  47 VRB7      29.83R
$$

VAZ020-022-025-037-045-272300-
WEST CENTRAL AND SOUTHWEST VIRGINIA

CITY           SKY/WX    TMP DP  RH WIND       PRES   REMARKS
STAUNTON*      CLOUDY    76  58  51 S12G20    29.80R
WAYNESBORO*    MOCLDY    75  59  56 S12G21    29.80S
HOT SPRINGS VA CLOUDY    64  48  55 S13G22    29.89S
LYNCHBURG      CLOUDY    75  56  51 S10       29.83R
DANVILLE       CLOUDY    75  57  53 SW9G18    29.84S
SOUTH BOSTON*  MOCLDY    78  55  44 S7        29.84S
MARTINSVILLE   CLOUDY    71  55  56 SW6       29.88R
ROANOKE        CLOUDY    73  57  57 S12       29.84R
BLACKSBURG     CLOUDY    67  54  62 SW6G16    29.90R
DUBLIN*        CLOUDY    66  52  60 S16G23    29.88R
MARION*        CLOUDY    65  57  75 CALM      29.90R
HILLSVILLE*    RAIN      58  58  99 CALM      29.89S
RICHLANDS*     CLOUDY    61  60  97 S5        29.86R
WISE*          PTSUNNY   68  57  68 SW16      29.86R
ABINGDON*        N/A     65  61  88 NW10      29.85R THUNDER
$$

MDZ021>025-VAZ099-100-272300-
SOUTHERN MARYLAND AND THE DELMARVA PENINSULA

CITY           SKY/WX    TMP DP  RH WIND       PRES   REMARKS
PATUXENT RIVER PTSUNNY   74  63  68 SE13      29.79S
BAY BRIDGE APT MOSUNNY   79  61  53 S12       29.79S
LEONARDTOWN    SUNNY     81  55  41 S8        29.81S
DOVER          SUNNY     71  71 100 SE3       29.79F
GEORGETOWN     MOSUNNY   81  60  48 S16       29.82R
EASTON         MOSUNNY   81  57  44 S17G24    29.84R
CAMBRIDGE      SUNNY     79  61  53 S9        29.81R
SALISBURY      SUNNY     78  63  59 S12G22    29.83R
OCEAN CITY     CLOUDY    65  59  81 VRB6      29.86S
WALLOPS ISLAND MOSUNNY   69  63  81 S16G26    29.86S
ACCOMACK*      CLOUDY    75  65  71 S15       29.84S
$$

NCZ012>017-030>032-272300-
NORTH CENTRAL AND EASTERN NORTH CAROLINA

CITY           SKY/WX    TMP DP  RH WIND       PRES   REMARKS
ROANOKE RAPIDS FAIR      77  59  53 S10G17    29.86R
RALEIGH        CLOUDY    78  59  51 SW12      29.87R
ELIZABETH CITY SUNNY     80  66  62 S12       29.87R
AHOSKIE*         N/A     79  59  50 S3        29.86S
EDENTON*       PTSUNNY   82  63  53 SW13      29.88R
CURRITUCK*     SUNNY     82  64  54 S3        29.87S
KILL DEVIL HLS SUNNY     77  62  59 S9G18     29.88S
MANTEO         SUNNY     76  65  68 S14G25    29.90S
CAPE HATTERAS  SUNNY     76  67  73 S8        29.93F HAZE
TARBORO*       NOT AVBL
GOLDSBORO      CLOUDY    81  59  47 SW8       29.86R
WASHINGTON     MOSUNNY   80  60  50 SW10G18   29.89R
GREENVILLE     MOSUNNY   82  57  42 S15       29.88F
NEW BERN       SUNNY     79  66  64 S13       29.92R
WILMINGTON     CLOUDY    78  62  57 SW14      29.93R
$$

VAZ048-272300-
ELSEWHERE

CITY           SKY/WX    TMP DP  RH WIND       PRES   REMARKS
HARRISBURG PA  PTSUNNY   77  64  64 SE9       29.75R
BALTIMORE      PTSUNNY   78  62  57 SE12      29.77R
ANNAPOLIS      MOSUNNY   76  60  57 SE16G22   29.78S
ANDREWS AFB    MOSUNNY   80  62  53 S16       29.76F
PHILADELPHIA   CLOUDY    77  64  64 S9        29.80F
HENDERSON NC   CLOUDY    74  55  50 S6        29.85S
GREENSBORO     CLOUDY    73  59  61 S14       29.85S
ROCKY MOUNT    PTSUNNY   79  60  52 S8        29.86S
$$

VAZ100-272300-
MARINE

STATION/POSITION TIME  TEMP    WIND        PRES    WAVE   SWELL
                       AIR SEA DIR/SP/G            HT/PER HT/PER
                 (UTC) (F)     (DEG/KT/KT) (MB)    (FT/S) (FT/S)
CAPE MAY NJ      2142   64 58  160/ 13/ 19 1009.9R
LEWES DE         2148   74 56  170/  9/ 13 1009.6R
15NM E FENWICK I 2150   57 52  160/ 14/ 16 1011.4S   4/ 9   3/ 9
WACHAPREAGUE VA  2148   69 70  150/ 12/ 17 1010.3F
THOMAS POINT MD  2200   70 58  160/ 17/ 18   N/A
GOOSES REEF MD   2150   65     200/ 14/ 16 1009.4R
COVE POINT MD    2142   67     180/ 15/ 18 1009.8R
SOLOMONS ISLAND  2142   71 61  140/  9/ 14   N/A
BISHOPS HEAD MD  2142   69 67  150/ 13/ 14 1010.0R
PINEY POINT MD   2142          210/ 13/ 14   N/A
POTOMAC MD       2150   68     170/ 12/ 14 1008.3R
CAMBRIDGE MD     2142   79 63                N/A
LEWISETTA VA     2148   81 66  220/ 12/ 17 1008.8R
RAPPAHANNOCK LGT 2142          150/ 14/ 15 1010.6R
STINGRAY PT      2150   67     180/ 10/ 12 1009.9S
YORK RVR RNG VA  2148   76     220/ 14/ 15 1009.3R
YORKTOWN VA      2148   82 65  210/ 14/ 18 1009.5R
JAMESTOWN VA     2150   80     220/ 12/ 17   N/A
DOMINION TERM VA 2142   76     220/ 11/ 13 1010.2R
KIPTOPEKE VA     2142      66  170/ 19/ 22   N/A
CHES BAY BRIDGE  2148   79 63  240/ 15/ 17 1010.0R
CAPE HENRY VA    2142   72     140/ 12/ 16   N/A
WILLOUBY STN VA  2142   81     210/ 15/ 16 1011.0S
S CRANEY ISL VA  2142   82     200/ 12/ 16 1010.0R
CAPE HENRY BUOY  2142      64                N/A     4/ 9   2/11
1ST LANDING BUOY 2150   74                 1010.2S
CAPE CHARLES BUO 2151      58                N/A     4/ 9   2/11
64NM E OF VA BCH 2150   62 58  160/ 12/ 12 1012.9F   4/ 8   3/ 8
DUCK PIER NC     2142   77 60  180/ 14/ 20 1011.1S
44100 DUCK FRF   2105      61                N/A     4/ 9   2/11
44056 DUCK FRF   2130      63                N/A     4/11   2/11
OREGON INLET NC  2142   74 72  180/ 18/ 22 1012.6S
HATTERAS NC      2148   76 70  190/  5/ 10 1013.3F
DIAMOND SHLS NC  2150   78 78  190/ 17/ 21 1013.5F   5/ 8   3/ 8
CAPE LOOKOUT NC  2200   75     210/ 10/ 15 1013.5R
$$



USA.gov is the U.S. government's official web portal to all federal, state and local government web resources and services.